FW6402 Weather Reports


Display with metric or nautical units.
time (UTC)temp
F
wind
direction
speed
MPH
gust
MPH
rain 1hr
in
rain 24hr
in
rain mn
in
humidity
%
barometer
mb
20260506130841 57 37 0.0 0.0 0.00 0.00 0.00 85 1021.6
20260506130408 57 37 0.0 0.0 0.00 0.00 0.00 85 1021.5
20260506125843 57 37 0.0 0.0 0.00 0.00 0.00 84 1021.4
20260506125401 57 37 0.0 0.0 0.00 0.00 0.00 84 1021.3
20260506124858 57 37 0.0 0.0 0.00 0.00 0.00 84 1021.3
20260506124356 57 36 0.0 0.0 0.00 0.00 0.00 84 1021.4
20260506123848 57 36 0.0 0.0 0.00 0.00 0.00 84 1021.4
20260506123346 57 36 0.0 0.0 0.00 0.00 0.00 84 1021.4
20260506122843 57 37 0.0 0.0 0.00 0.00 0.00 84 1021.4
20260506122349 57 36 0.0 0.0 0.00 0.00 0.00 84 1021.4
20260506121846 57 36 0.0 0.0 0.00 0.00 0.00 84 1021.4
20260506121403 57 36 0.0 0.0 0.00 0.00 0.00 84 1021.3
20260506120842 57 36 0.0 0.0 0.00 0.00 0.00 85 1021.2
20260506120339 57 36 0.0 0.0 0.00 0.00 0.00 84 1021.2
20260506115858 57 36 0.0 0.0 0.00 0.00 0.00 84 1021.2
20260506115352 57 37 0.0 0.0 0.00 0.00 0.00 84 1021.1
20260506114850 57 36 0.0 0.0 0.00 0.00 0.00 84 1021.1
20260506114346 57 37 0.0 0.0 0.00 0.00 0.00 84 1021.0
20260506113839 57 37 0.0 0.0 0.00 0.00 0.00 84 1021.0
20260506113336 57 342 0.0 2.0 0.00 0.00 0.00 84 1021.0
20260506112855 57 264 0.0 2.0 0.00 0.00 0.00 84 1020.9
20260506112352 58 11 0.0 1.0 0.00 0.00 0.00 84 1020.9
20260506111831 58 39 0.0 1.0 0.00 0.00 0.00 84 1020.8
20260506111350 58 39 0.0 1.0 0.00 0.00 0.00 84 1020.8
20260506110847 58 20 0.0 1.0 0.00 0.00 0.00 84 1020.7
20260506110412 58 21 0.0 0.0 0.00 0.00 0.00 84 1020.7
20260506105845 58 22 0.0 0.0 0.00 0.00 0.00 85 1020.5
20260506105403 58 16 0.0 0.0 0.00 0.00 0.00 84 1020.4
20260506104847 58 16 0.0 0.0 0.00 0.00 0.00 85 1020.2
20260506104343 58 15 0.0 0.0 0.00 0.00 0.00 85 1020.2
20260506103838 58 16 0.0 0.0 0.00 0.00 0.00 84 1020.2
20260506103329 58 15 0.0 0.0 0.00 0.00 0.00 84 1020.1
20260506102855 58 15 0.0 0.0 0.00 0.00 0.00 83 1020.1
20260506102329 58 15 0.0 0.0 0.00 0.00 0.00 83 1019.9
20260506101843 58 15 0.0 1.0 0.00 0.00 0.00 83 1019.8
20260506101343 58 15 0.0 1.0 0.00 0.00 0.00 83 1019.9
20260506100839 58 15 0.0 2.0 0.00 0.00 0.00 83 1019.7
20260506100335 58 41 0.0 3.0 0.00 0.00 0.00 83 1019.8
20260506095844 59 38 0.0 3.0 0.00 0.00 0.00 83 1019.7
20260506095349 59 60 0.0 2.0 0.00 0.00 0.00 83 1019.7
20260506094846 59 55 0.0 1.0 0.00 0.00 0.00 83 1019.7
20260506094343 59 70 0.0 2.0 0.00 0.00 0.00 83 1019.7
20260506093838 59 70 0.0 2.0 0.00 0.00 0.00 84 1019.6
20260506093338 59 49 0.0 1.0 0.00 0.00 0.00 84 1019.6
20260506092835 59 8 0.0 1.0 0.00 0.00 0.00 85 1019.7
20260506092348 59 8 0.0 1.0 0.00 0.00 0.00 84 1019.6
20260506091846 59 20 0.0 1.0 0.00 0.00 0.00 85 1019.5
20260506091343 59 240 0.0 1.0 0.00 0.00 0.00 85 1019.5
20260506090904 59 101 0.0 1.0 0.00 0.00 0.00 86 1019.4
20260506090340 59 77 0.0 0.0 0.00 0.00 0.00 87 1019.5
20260506085831 59 77 0.0 0.0 0.00 0.00 0.00 87 1019.3
20260506085357 59 77 0.0 0.0 0.00 0.00 0.00 87 1019.5
20260506084832 59 77 0.0 0.0 0.00 0.00 0.00 86 1019.4
20260506084330 59 77 0.0 0.0 0.00 0.00 0.00 86 1019.5
20260506083844 59 77 0.0 1.0 0.00 0.00 0.00 86 1019.5
20260506083410 59 77 0.0 1.0 0.00 0.00 0.00 86 1019.5
20260506082907 59 77 0.0 0.0 0.00 0.00 0.00 86 1019.4
20260506082351 59 77 0.0 0.0 0.00 0.00 0.00 86 1019.4
20260506081847 59 77 0.0 0.0 0.00 0.00 0.00 86 1019.5
20260506081406 59 77 0.0 0.0 0.00 0.00 0.00 86 1019.5
20260506080850 59 77 0.0 0.0 0.00 0.00 0.00 86 1019.4
20260506080403 59 77 0.0 0.0 0.00 0.00 0.00 86 1019.3
20260506073333 59 77 0.0 1.0 0.00 0.00 0.00 85 1019.2
20260506072831 59 77 0.0 0.0 0.00 0.00 0.00 85 1019.2
20260506072348 59 77 0.0 0.0 0.00 0.00 0.00 85 1019.2
20260506071854 59 77 0.0 0.0 0.00 0.00 0.00 85 1019.2
20260506071408 59 77 0.0 0.0 0.00 0.00 0.00 85 1019.1
20260506070843 59 77 0.0 0.0 0.00 0.00 0.00 85 1019.1
20260506070341 59 77 0.0 1.0 0.00 0.00 0.00 85 1019.1
20260506062350 59 92 0.0 0.0 0.00 0.00 0.00 85 1019.0
20260506061842 59 91 0.0 0.0 0.00 0.00 0.00 85 1018.9
20260506061338 59 92 0.0 0.0 0.00 0.00 0.00 85 1018.9
20260506060905 59 92 0.0 1.0 0.00 0.00 0.00 85 1018.9
20260506060340 59 92 0.0 1.0 0.00 0.00 0.00 85 1018.9
20260506051340 58 110 0.0 0.0 0.00 0.00 0.00 86 1018.6
20260506050847 58 110 0.0 0.0 0.00 0.00 0.00 86 1018.5
20260506050345 58 110 0.0 0.0 0.00 0.00 0.00 86 1018.6
20260506044856 57 110 0.0 0.0 0.00 0.00 0.00 85 1018.5
20260506044349 58 110 0.0 0.0 0.00 0.00 0.00 85 1018.5
20260506043845 58 110 0.0 0.0 0.00 0.00 0.00 84 1018.4
20260506043343 58 110 0.0 0.0 0.00 0.00 0.00 84 1018.3
20260506042842 58 110 0.0 0.0 0.00 0.00 0.00 83 1018.2
20260506042338 59 110 0.0 0.0 0.00 0.00 0.00 83 1018.2
20260506041858 59 110 0.0 0.0 0.00 0.00 0.00 82 1018.1
20260506041355 59 110 0.0 0.0 0.00 0.00 0.00 82 1018.1
20260506040832 59 110 0.0 0.0 0.00 0.00 0.00 81 1018.1
20260506040349 60 110 0.0 0.0 0.00 0.00 0.00 81 1017.9
20260506035846 60 110 0.0 0.0 0.00 0.00 0.00 81 1017.9
20260506035340 60 110 0.0 0.0 0.00 0.00 0.00 80 1017.9
20260506034838 61 110 0.0 0.0 0.00 0.00 0.00 80 1017.7
20260506034337 61 110 0.0 0.0 0.00 0.00 0.00 79 1017.7
20260506033833 62 110 0.0 0.0 0.00 0.00 0.00 78 1017.6
20260506033330 62 110 0.0 0.0 0.00 0.00 0.00 77 1017.5
20260506032917 62 110 0.0 0.0 0.00 0.00 0.00 77 1017.5
20260506032353 63 110 0.0 0.0 0.00 0.00 0.00 76 1017.5
20260506031852 63 110 0.0 0.0 0.00 0.00 0.00 75 1017.5
20260506031348 63 110 0.0 0.0 0.00 0.00 0.00 75 1017.4
20260506030911 63 103 0.0 0.0 0.00 0.00 0.00 74 1017.4
20260506030346 63 103 0.0 0.0 0.00 0.00 0.00 74 1017.3
20260506025844 63 103 0.0 0.0 0.00 0.00 0.00 74 1017.3
20260506025342 63 103 0.0 0.0 0.00 0.00 0.00 73 1017.2
20260506024839 64 155 0.0 0.0 0.00 0.00 0.00 72 1017.2
20260506024359 64 84 0.0 0.0 0.00 0.00 0.00 72 1017.2
20260506023858 64 84 0.0 0.0 0.00 0.00 0.00 73 1017.2
20260506023354 64 79 0.0 0.0 0.00 0.00 0.00 72 1017.2
20260506022850 63 79 0.0 2.0 0.00 0.00 0.00 73 1017.2
20260506022346 64 99 1.0 2.0 0.00 0.00 0.00 73 1017.2
20260506021844 64 92 1.0 2.0 0.00 0.00 0.00 72 1017.2
20260506021338 64 308 0.0 0.0 0.00 0.00 0.00 71 1017.1
20260506020835 64 308 0.0 0.0 0.00 0.00 0.00 71 1017.2
20260506020354 65 309 0.0 0.0 0.00 0.00 0.00 70 1017.2
20260506015831 65 313 0.0 0.0 0.00 0.00 0.00 70 1017.2
20260506015348 65 313 0.0 0.0 0.00 0.00 0.00 70 1017.1
20260506014854 65 314 0.0 0.0 0.00 0.00 0.00 70 1017.1
20260506014351 65 288 0.0 0.0 0.00 0.00 0.00 70 1017.2
20260506013848 65 288 0.0 1.0 0.00 0.00 0.00 71 1017.2
20260506013346 65 288 0.0 1.0 0.00 0.00 0.00 70 1017.2
20260506012844 65 287 0.0 1.0 0.00 0.00 0.00 71 1017.2
20260506012355 65 281 0.0 1.0 0.00 0.00 0.00 70 1017.1
20260506011832 65 281 0.0 1.0 0.00 0.00 0.00 71 1017.1
20260506011348 65 266 0.0 1.0 0.00 0.00 0.00 72 1017.1
20260506010915 65 254 0.0 1.0 0.00 0.00 0.00 71 1017.1
20260506010330 64 264 0.0 1.0 0.00 0.00 0.00 71 1017.2
20260506005845 64 285 0.0 2.0 0.00 0.00 0.00 71 1017.1
20260506005342 64 211 1.0 2.0 0.00 0.00 0.00 70 1017.1
20260506004841 64 214 0.0 1.0 0.00 0.00 0.00 71 1017.1
20260506004348 64 266 0.0 1.0 0.00 0.00 0.00 72 1017.2
20260506003845 64 276 0.0 3.0 0.00 0.00 0.00 71 1017.2
20260506003336 65 278 0.0 3.0 0.00 0.00 0.00 71 1017.2
20260506002855 65 25 0.0 1.0 0.00 0.00 0.00 71 1017.2
20260506002354 65 226 0.0 1.0 0.00 0.00 0.00 70 1017.2
20260506001829 64 348 0.0 2.0 0.00 0.00 0.00 71 1017.2
20260506001345 64 280 1.0 3.0 0.00 0.00 0.00 72 1017.3
20260506000841 64 269 0.0 3.0 0.00 0.00 0.00 71 1017.3
20260506000339 64 283 0.0 4.0 0.00 0.00 0.00 70 1017.3
20260505235838 65 34 1.0 4.0 0.00 0.00 0.00 69 1017.3
20260505235333 65 264 0.0 2.0 0.00 0.00 0.00 70 1017.4
20260505234846 65 38 0.0 2.0 0.00 0.00 0.00 70 1017.4
20260505234342 65 80 0.0 2.0 0.00 0.00 0.00 70 1017.4
20260505233838 64 263 0.0 3.0 0.00 0.00 0.00 71 1017.5
20260505233405 64 256 1.0 3.0 0.00 0.00 0.00 70 1017.4
20260505232840 65 282 1.0 3.0 0.00 0.00 0.00 69 1017.5
20260505232338 65 238 1.0 3.0 0.00 0.00 0.00 70 1017.5
20260505231858 65 9 0.0 2.0 0.00 0.00 0.00 71 1017.6
20260505231355 65 264 0.0 4.0 0.00 0.00 0.00 71 1017.5
20260505230832 65 226 1.0 4.0 0.00 0.00 0.00 69 1017.5
20260505230414 66 247 0.0 1.0 0.00 0.00 0.00 70 1017.5
20260505225851 65 32 0.0 1.0 0.00 0.00 0.00 71 1017.6
20260505225349 64 274 0.0 4.0 0.00 0.00 0.00 71 1017.6
20260505224906 64 284 0.0 4.0 0.00 0.00 0.00 72 1017.6
20260505224342 64 264 0.0 3.0 0.00 0.00 0.00 71 1017.7
20260505223839 65 23 1.0 4.0 0.00 0.00 0.00 71 1017.8
20260505223347 65 44 0.0 4.0 0.00 0.00 0.00 70 1017.8
20260505222845 65 264 0.0 2.0 0.00 0.00 0.00 70 1017.9
20260505222341 65 257 0.0 1.0 0.00 0.00 0.00 70 1017.9
20260505221900 65 215 0.0 2.0 0.00 0.00 0.00 70 1017.9
20260505221335 65 252 1.0 2.0 0.00 0.00 0.00 68 1017.9
20260505220832 65 314 0.0 3.0 0.00 0.00 0.00 71 1017.9
20260505220418 64 260 0.0 3.0 0.00 0.00 0.00 70 1018.0
20260505215853 65 151 0.0 4.0 0.00 0.00 0.00 69 1018.0
20260505215350 64 229 1.0 4.0 0.00 0.00 0.00 70 1018.1
20260505214847 65 247 0.0 1.0 0.00 0.00 0.00 71 1018.1
20260505214345 65 63 0.0 2.0 0.00 0.00 0.00 69 1018.1
20260505213843 64 265 1.0 2.0 0.00 0.00 0.00 70 1018.1
20260505213340 65 274 0.0 1.0 0.00 0.00 0.00 69 1018.1
20260505212838 65 272 0.0 1.0 0.00 0.00 0.00 72 1018.1
20260505212348 64 248 0.0 4.0 0.00 0.00 0.00 71 1018.3
20260505211914 65 30 1.0 4.0 0.00 0.00 0.00 70 1018.2
20260505211351 64 353 0.0 1.0 0.00 0.00 0.00 72 1018.3
20260505210848 64 270 0.0 3.0 0.00 0.00 0.00 73 1018.2
20260505210407 63 266 0.0 3.0 0.00 0.00 0.00 73 1018.3
20260505205852 63 235 1.0 4.0 0.00 0.00 0.00 72 1018.3
20260505205348 63 260 1.0 3.0 0.00 0.00 0.00 72 1018.3
20260505204846 64 256 1.0 3.0 0.00 0.00 0.00 72 1018.3
20260505204343 63 237 0.0 3.0 0.00 0.00 0.00 73 1018.3
20260505203840 63 292 1.0 3.0 0.00 0.00 0.00 73 1018.3
20260505203335 64 244 1.0 4.0 0.00 0.00 0.00 72 1018.4
20260505202855 64 269 1.0 4.0 0.00 0.00 0.00 70 1018.4
20260505202351 65 288 1.0 2.0 0.00 0.00 0.00 70 1018.3
20260505201829 64 120 0.0 4.0 0.00 0.00 0.00 71 1018.5
20260505201347 64 165 1.0 4.0 0.00 0.00 0.00 71 1018.5
20260505200852 64 248 1.0 4.0 0.00 0.00 0.00 72 1018.5
20260505200409 64 78 2.0 4.0 0.00 0.00 0.00 71 1018.5
20260505195843 63 284 0.0 3.0 0.00 0.00 0.00 74 1018.5
20260505195341 63 250 1.0 3.0 0.00 0.00 0.00 72 1018.5
20260505194839 63 238 2.0 3.0 0.00 0.00 0.00 73 1018.5
20260505194334 63 190 0.0 3.0 0.00 0.00 0.00 75 1018.5
20260505193853 62 245 2.0 3.0 0.00 0.00 0.00 73 1018.6
20260505193349 63 134 1.0 3.0 0.00 0.00 0.00 74 1018.6
20260505192846 62 86 0.0 3.0 0.00 0.00 0.00 75 1018.6
20260505192345 61 161 1.0 2.0 0.00 0.00 0.00 77 1018.6
20260505191843 61 68 1.0 3.0 0.00 0.00 0.00 76 1018.6
20260505191341 60 284 2.0 4.0 0.00 0.00 0.00 77 1018.6
20260505190841 61 237 2.0 4.0 0.00 0.00 0.00 75 1018.6
20260505190359 61 96 0.0 1.0 0.00 0.00 0.00 77 1018.6
20260505185853 60 122 0.0 3.0 0.00 0.00 0.00 78 1018.6
20260505185331 60 56 2.0 3.0 0.00 0.00 0.00 79 1018.6
20260505184848 60 133 1.0 2.0 0.00 0.00 0.00 79 1018.6
20260505184343 59 51 0.0 2.0 0.00 0.00 0.00 80 1018.7
20260505183849 59 263 0.0 3.0 0.00 0.00 0.00 81 1018.7
20260505183348 58 52 1.0 3.0 0.00 0.00 0.00 81 1018.7
20260505182845 58 52 1.0 2.0 0.00 0.00 0.00 81 1018.8
20260505182342 58 75 0.0 2.0 0.00 0.00 0.00 82 1018.7
20260505181839 58 53 0.0 2.0 0.00 0.00 0.00 82 1018.6
20260505181357 58 74 0.0 2.0 0.00 0.00 0.00 83 1018.6
20260505180850 58 101 1.0 2.0 0.00 0.00 0.00 83 1018.6
20260505180347 57 40 0.0 2.0 0.00 0.00 0.00 83 1018.6
20260505175841 57 259 0.0 3.0 0.00 0.00 0.00 83 1018.6
20260505174914 58 258 0.0 2.0 0.00 0.00 0.00 83 1018.6
20260505174409 57 164 0.0 2.0 0.00 0.00 0.00 83 1018.6
20260505173846 57 250 0.0 2.0 0.00 0.00 0.00 83 1018.6
20260505173344 57 243 0.0 2.0 0.00 0.00 0.00 83 1018.5
20260505172841 57 226 0.0 2.0 0.00 0.00 0.00 83 1018.6
20260505172341 57 271 0.0 2.0 0.00 0.00 0.00 83 1018.5
20260505171838 57 218 0.0 2.0 0.00 0.00 0.00 84 1018.4
20260505171331 57 250 1.0 2.0 0.00 0.00 0.00 83 1018.4
20260505170846 57 226 0.0 2.0 0.00 0.00 0.00 84 1018.5
20260505170344 57 214 1.0 3.0 0.00 0.00 0.00 83 1018.4
20260505165841 57 275 1.0 3.0 0.00 0.00 0.00 83 1018.3
20260505165348 57 197 0.0 2.0 0.00 0.00 0.00 83 1018.4
20260505164845 57 221 0.0 2.0 0.00 0.00 0.00 84 1018.4
20260505164342 57 283 1.0 3.0 0.00 0.00 0.00 84 1018.3
20260505163900 57 231 0.0 3.0 0.00 0.00 0.00 84 1018.3
20260505163406 57 182 0.0 2.0 0.00 0.00 0.00 84 1018.3
20260505162842 57 94 0.0 2.0 0.00 0.00 0.00 84 1018.3
20260505162356 57 159 1.0 3.0 0.00 0.00 0.00 84 1018.3
20260505161901 57 101 1.0 3.0 0.00 0.00 0.00 84 1018.2
20260505161329 56 155 0.0 1.0 0.00 0.00 0.00 86 1018.3
20260505160854 56 86 0.0 1.0 0.00 0.00 0.00 85 1018.2
20260505160331 56 229 0.0 1.0 0.00 0.00 0.00 86 1018.2
20260505153345 55 143 0.0 2.0 0.00 0.00 0.00 88 1018.3
20260505152842 55 271 1.0 2.0 0.00 0.00 0.00 87 1018.3
20260505152339 55 118 0.0 2.0 0.00 0.00 0.00 88 1018.2
20260505151831 55 156 0.0 2.0 0.00 0.00 0.00 88 1018.2
20260505151357 55 118 0.0 1.0 0.00 0.00 0.00 88 1018.2
20260505150832 55 268 0.0 2.0 0.00 0.00 0.00 88 1018.2
20260505150349 55 229 1.0 2.0 0.00 0.00 0.00 87 1018.2
20260505140346 54 245 0.0 0.0 0.00 0.00 0.00 86 1017.4